User: anonymous   Login
Location: Unspecified
(43.4680°N, 87.1740°E)
Time: 20:37:40
(UTC+00:00)
Language:

CZ-2D R/B - Orbit

View from above orbital plane
View from above orbital plane
View from above satellite
View from above satellite

Ground track
Ground track

The orbit data is extracted from the following two-line orbital elements,

1 36597U 10027B   21172.46914861  .00000062  00000-0  12163-4 0  9997
2 36597  97.9203 136.4493 0060847 202.2505 157.6071 14.90887308598606
Epoch (UTC): 21 June 2021 11:15:34
Eccentricity: 0.0060847
inclination: 97.9203°
perigee height: 553 km
apogee height: 637 km
right ascension of ascending node: 136.4493°
argument of perigee: 202.2505°
revolutions per day: 14.90887308
mean anomaly at epoch: 157.6071°
orbit number at epoch: 59860

The dashed part of the orbit path shows where the satellite is in the earth's shadow,  

DLR